W4NRG-1 Weather Reports


Display with metric or nautical units.
time (UTC)temp
F
wind
direction
speed
MPH
gust
MPH
rain 1hr
in
rain 24hr
in
rain mn
in
humidity
%
barometer
mb
20260505224040 80 336 1.0 6.0 0.00 0.00 0.00 37 1011.6
20260505223537 80 352 7.0 9.0 0.00 0.00 0.00 36 1011.5
20260505223033 80 19 2.0 4.0 0.00 0.00 0.00 36 1011.7
20260505222529 81 49 2.0 3.0 0.00 0.00 0.00 35 1011.7
20260505222025 82 109 2.0 3.0 0.00 0.00 0.00 35 1011.7
20260505221523 82 67 4.0 6.0 0.00 0.00 0.00 34 1011.8
20260505221019 82 83 5.0 7.0 0.00 0.00 0.00 34 1011.6
20260505220516 82 56 2.0 3.0 0.00 0.00 0.00 34 1011.5
20260505220014 82 273 2.0 8.0 0.00 0.00 0.00 34 1011.5
20260505215512 82 313 5.0 8.0 0.00 0.00 0.00 34 1011.6
20260505215010 82 318 3.0 13.0 0.00 0.00 0.00 34 1011.7
20260505214508 82 169 3.0 8.0 0.00 0.00 0.00 34 1011.7
20260505214004 83 28 3.0 14.0 0.00 0.00 0.00 34 1011.5
20260505213502 83 305 3.0 8.0 0.00 0.00 0.00 33 1011.5
20260505212958 83 284 2.0 9.0 0.00 0.00 0.00 34 1011.6
20260505212455 84 75 5.0 15.0 0.00 0.00 0.00 32 1011.5
20260505211951 84 47 4.0 6.0 0.00 0.00 0.00 34 1011.7
20260505211449 83 293 9.0 11.0 0.00 0.00 0.00 32 1011.5
20260505210945 84 309 2.0 13.0 0.00 0.00 0.00 32 1011.3
20260505210442 84 323 3.0 9.0 0.00 0.00 0.00 32 1011.4
20260505205939 84 3 5.0 11.0 0.00 0.00 0.00 31 1011.6
20260505205438 83 104 1.0 16.0 0.00 0.00 0.00 31 1011.4
20260505204934 84 346 7.0 11.0 0.00 0.00 0.00 30 1011.5
20260505204432 84 328 4.0 15.0 0.00 0.00 0.00 31 1011.5
20260505203929 85 286 4.0 8.0 0.00 0.00 0.00 32 1011.6
20260505203425 85 296 3.0 9.0 0.00 0.00 0.00 31 1011.4
20260505202921 85 268 2.0 9.0 0.00 0.00 0.00 32 1011.7
20260505202418 85 137 5.0 8.0 0.00 0.00 0.00 32 1011.7
20260505201915 85 22 8.0 11.0 0.00 0.00 0.00 33 1011.5
20260505201412 85 356 5.0 11.0 0.00 0.00 0.00 33 1011.9
20260505200910 85 332 4.0 7.0 0.00 0.00 0.00 33 1011.7
20260505200407 84 331 4.0 8.0 0.00 0.00 0.00 33 1012.0
20260505195902 84 303 11.0 15.0 0.00 0.00 0.00 32 1012.1
20260505195400 85 310 5.0 11.0 0.00 0.00 0.00 32 1012.1
20260505194857 84 70 4.0 9.0 0.00 0.00 0.00 33 1012.2
20260505194355 84 215 3.0 14.0 0.00 0.00 0.00 33 1012.3
20260505193854 85 200 2.0 8.0 0.00 0.00 0.00 34 1012.1
20260505193353 85 299 3.0 4.0 0.00 0.00 0.00 35 1012.5
20260505192850 85 233 3.0 8.0 0.00 0.00 0.00 34 1012.5
20260505192348 85 124 6.0 9.0 0.00 0.00 0.00 33 1012.9
20260505191845 84 80 4.0 7.0 0.00 0.00 0.00 34 1012.7
20260505191344 84 337 4.0 9.0 0.00 0.00 0.00 34 1012.9
20260505190840 85 55 7.0 11.0 0.00 0.00 0.00 33 1012.9
20260505190336 84 27 4.0 7.0 0.00 0.00 0.00 35 1012.7
20260505185831 84 46 5.0 8.0 0.00 0.00 0.00 34 1012.7
20260505185328 84 82 4.0 7.0 0.00 0.00 0.00 34 1013.1
20260505184824 85 337 2.0 9.0 0.00 0.00 0.00 35 1013.0
20260505184321 84 298 4.0 7.0 0.00 0.00 0.00 37 1013.2
20260505183819 84 298 4.0 11.0 0.00 0.00 0.00 35 1013.2
20260505183315 84 273 2.0 8.0 0.00 0.00 0.00 35 1013.1
20260505182812 84 336 2.0 8.0 0.00 0.00 0.00 35 1013.1
20260505182309 84 347 5.0 9.0 0.00 0.00 0.00 36 1013.5
20260505181806 83 51 7.0 13.0 0.00 0.00 0.00 33 1013.2
20260505181303 83 3 4.0 10.0 0.00 0.00 0.00 37 1013.3
20260505180759 83 68 1.0 2.0 0.00 0.00 0.00 39 1013.2
20260505180256 82 70 8.0 11.0 0.00 0.00 0.00 37 1013.6
20260505175752 82 85 4.0 13.0 0.00 0.00 0.00 39 1013.6
20260505175249 82 311 5.0 11.0 0.00 0.00 0.00 39 1013.6
20260505174745 82 293 5.0 8.0 0.00 0.00 0.00 38 1013.7
20260505174243 82 314 7.0 13.0 0.00 0.00 0.00 37 1013.5
20260505173738 82 29 1.0 10.0 0.00 0.00 0.00 42 1013.6
20260505173235 81 197 2.0 4.0 0.00 0.00 0.00 41 1013.3
20260505172732 81 51 6.0 10.0 0.00 0.00 0.00 41 1013.7
20260505172229 82 323 3.0 11.0 0.00 0.00 0.00 41 1013.7
20260505171729 81 306 2.0 6.0 0.00 0.00 0.00 40 1013.9
20260505171227 80 291 2.0 3.0 0.00 0.00 0.00 44 1013.8
20260505170723 81 96 4.0 6.0 0.00 0.00 0.00 43 1013.7
20260505170220 81 71 2.0 7.0 0.00 0.00 0.00 43 1014.0
20260505165715 80 222 1.0 4.0 0.00 0.00 0.00 43 1014.3
20260505165212 80 54 1.0 11.0 0.00 0.00 0.00 43 1014.3
20260505164707 81 29 3.0 7.0 0.00 0.00 0.00 41 1014.2
20260505164204 80 72 2.0 6.0 0.00 0.00 0.00 41 1014.4
20260505163703 80 96 2.0 4.0 0.00 0.00 0.00 43 1014.5
20260505163201 80 69 0.0 4.0 0.00 0.00 0.00 43 1014.3
20260505162658 80 54 2.0 4.0 0.00 0.00 0.00 43 1014.3
20260505162155 79 55 2.0 7.0 0.00 0.00 0.00 44 1014.4
20260505161652 79 116 2.0 6.0 0.00 0.00 0.00 44 1014.6
20260505161149 79 13 4.0 8.0 0.00 0.00 0.00 44 1014.5
20260505160647 78 223 3.0 8.0 0.00 0.00 0.00 46 1014.7
20260505160144 78 38 5.0 9.0 0.00 0.00 0.00 45 1014.8
20260505153124 77 314 0.0 3.0 0.00 0.00 0.00 49 1014.7
20260505152620 76 71 3.0 7.0 0.00 0.00 0.00 49 1014.8
20260505152116 76 49 4.0 7.0 0.00 0.00 0.00 48 1014.8
20260505151611 76 75 2.0 7.0 0.00 0.00 0.00 52 1014.5
20260505151109 76 349 4.0 7.0 0.00 0.00 0.00 49 1014.8
20260505150605 75 355 2.0 4.0 0.00 0.00 0.00 52 1014.8
20260505140531 71 62 3.0 6.0 0.00 0.00 0.00 54 1014.9
20260505124944 66 87 2.0 9.0 0.00 0.00 0.00 62 1014.9
20260505124441 65 168 9.0 14.0 0.00 0.00 0.00 63 1014.9
20260505123937 65 73 3.0 7.0 0.00 0.00 0.00 62 1014.9
20260505123433 65 285 1.0 2.0 0.00 0.00 0.00 64 1014.9
20260505122929 65 321 1.0 8.0 0.00 0.00 0.00 64 1014.9
20260505122427 64 319 2.0 9.0 0.00 0.00 0.00 64 1014.8
20260505121924 65 354 4.0 6.0 0.00 0.00 0.00 62 1014.8
20260505121421 65 354 4.0 6.0 0.00 0.00 0.00 62 1014.7
20260505120916 65 88 3.0 3.0 0.00 0.00 0.00 64 1014.6
20260505120413 65 88 3.0 3.0 0.00 0.00 0.00 64 1014.9
20260505115912 0 0.0 0.0 0.00 0.00 0.00 1014.7
20260505115409 64 45 2.0 2.0 0.00 0.00 0.00 67 1014.7
20260505114907 64 45 2.0 3.0 0.00 0.00 0.00 67 1014.8
20260505114403 63 182 3.0 4.0 0.00 0.00 0.00 67 1014.8
20260505113859 63 153 0.0 1.0 0.00 0.00 0.00 68 1014.5
20260505113356 63 250 1.0 1.0 0.00 0.00 0.00 68 1014.5
20260505112851 62 93 1.0 2.0 0.00 0.00 0.00 68 1014.3
20260505112350 62 124 0.0 1.0 0.00 0.00 0.00 69 1014.4
20260505111845 62 358 1.0 2.0 0.00 0.00 0.00 69 1014.5
20260505111340 62 291 1.0 3.0 0.00 0.00 0.00 69 1014.4
20260505110837 62 356 0.0 3.0 0.00 0.00 0.00 69 1014.3
20260505110334 62 51 0.0 2.0 0.00 0.00 0.00 69 1014.3
20260505101809 60 277 1.0 1.0 0.00 0.00 0.00 71 1014.3
20260505101304 60 227 1.0 1.0 0.00 0.00 0.00 72 1014.2
20260505100801 60 107 0.0 1.0 0.00 0.00 0.00 72 1014.0
20260505100257 60 21 0.0 0.0 0.00 0.00 0.00 72 1013.9
20260505095753 60 80 1.0 2.0 0.00 0.00 0.00 72 1014.0
20260505095251 60 52 0.0 1.0 0.00 0.00 0.00 72 1013.9
20260505094746 60 186 0.0 1.0 0.00 0.00 0.00 72 1013.9
20260505094243 60 353 1.0 1.0 0.00 0.00 0.00 71 1014.1
20260505093739 61 94 0.0 1.0 0.00 0.00 0.00 71 1013.9
20260505093237 61 270 0.0 2.0 0.00 0.00 0.00 71 1013.8
20260505092734 61 70 1.0 2.0 0.00 0.00 0.00 71 1013.8
20260505092232 61 343 0.0 1.0 0.00 0.00 0.00 70 1013.8
20260505091729 61 214 0.0 0.0 0.00 0.00 0.00 70 1014.1
20260505091228 61 165 0.0 1.0 0.00 0.00 0.00 70 1014.0
20260505090725 61 51 0.0 1.0 0.00 0.00 0.00 70 1013.8
20260505090223 62 130 1.0 1.0 0.00 0.00 0.00 69 1013.8
20260505085720 62 336 2.0 4.0 0.00 0.00 0.00 69 1013.7
20260505085218 62 280 0.0 1.0 0.00 0.00 0.00 68 1013.7
20260505084715 62 338 1.0 2.0 0.00 0.00 0.00 68 1013.9
20260505084214 62 313 1.0 2.0 0.00 0.00 0.00 67 1013.6
20260505083710 62 317 3.0 3.0 0.00 0.00 0.00 67 1013.5
20260505083207 62 19 1.0 1.0 0.00 0.00 0.00 67 1013.4
20260505082703 62 227 0.0 1.0 0.00 0.00 0.00 67 1013.5
20260505082201 62 183 1.0 1.0 0.00 0.00 0.00 68 1013.4
20260505081656 62 211 0.0 1.0 0.00 0.00 0.00 67 1013.5
20260505081154 62 321 1.0 4.0 0.00 0.00 0.00 67 1013.7
20260505080651 63 43 1.0 2.0 0.00 0.00 0.00 67 1013.7
20260505080146 63 116 3.0 3.0 0.00 0.00 0.00 67 1013.6
20260505075642 63 206 0.0 4.0 0.00 0.00 0.00 66 1013.8
20260505075139 63 57 1.0 2.0 0.00 0.00 0.00 67 1013.7
20260505074636 62 87 1.0 2.0 0.00 0.00 0.00 68 1013.7
20260505074133 62 3 2.0 4.0 0.00 0.00 0.00 68 1013.7
20260505073631 62 21 0.0 1.0 0.00 0.00 0.00 68 1013.5
20260505073129 63 76 2.0 3.0 0.00 0.00 0.00 68 1013.6
20260505072624 63 23 1.0 2.0 0.00 0.00 0.00 67 1013.4
20260505072121 63 81 4.0 4.0 0.00 0.00 0.00 67 1013.4
20260505071617 63 37 0.0 1.0 0.00 0.00 0.00 67 1013.3
20260505071115 63 332 2.0 2.0 0.00 0.00 0.00 66 1013.5
20260505070612 63 332 2.0 2.0 0.00 0.00 0.00 66 1013.1
20260505070108 63 198 3.0 3.0 0.00 0.00 0.00 66 1013.1
20260505065604 63 312 1.0 6.0 0.00 0.00 0.00 66 1013.3
20260505065101 0 0.0 0.0 0.00 0.00 0.00 1013.8
20260505064557 0 0.0 0.0 0.00 0.00 0.00 1013.3
20260505064056 0 0.0 0.0 0.00 0.00 0.00 1013.1
20260505063553 0 0.0 0.0 0.00 0.00 0.00 1013.5
20260505063049 0 0.0 0.0 0.00 0.00 0.00 1013.4
20260505062545 64 74 4.0 6.0 0.00 0.00 0.00 64 1013.3
20260505062043 64 74 4.0 6.0 0.00 0.00 0.00 64 1013.2
20260505061540 0 0.0 0.0 0.00 0.00 0.00 1013.3
20260505061038 64 15 1.0 2.0 0.00 0.00 0.00 63 1013.2
20260505060535 64 15 1.0 2.0 0.00 0.00 0.00 63 1013.4
20260505060032 64 315 3.0 4.0 0.00 0.00 0.00 63 1013.2
20260505055527 64 314 3.0 3.0 0.00 0.00 0.00 62 1013.4
20260505055024 64 342 2.0 4.0 0.00 0.00 0.00 62 1013.2
20260505054521 64 56 2.0 3.0 0.00 0.00 0.00 61 1013.3
20260505054020 64 56 2.0 3.0 0.00 0.00 0.00 61 1013.4
20260505053516 64 51 2.0 3.0 0.00 0.00 0.00 60 1013.3
20260505053013 0 0.0 0.0 0.00 0.00 0.00 1013.3
20260505052510 0 0.0 0.0 0.00 0.00 0.00 1013.4
20260505052008 0 0.0 0.0 0.00 0.00 0.00 1013.2
20260505051504 0 0.0 0.0 0.00 0.00 0.00 1013.1
20260505051003 0 0.0 0.0 0.00 0.00 0.00 1013.1
20260505050500 62 66 1.0 1.0 0.00 0.00 0.00 60 1013.2
20260505041428 0 0.0 0.0 0.00 0.00 0.00 1012.9
20260505040925 0 0.0 0.0 0.00 0.00 0.00 1013.3
20260505040422 0 0.0 0.0 0.00 0.00 0.00 1012.9
20260505035919 0 0.0 0.0 0.00 0.00 0.00 1013.3
20260505035415 0 0.0 0.0 0.00 0.00 0.00 1013.0
20260505034913 0 0.0 0.0 0.00 0.00 0.00 1013.1
20260505034409 0 0.0 0.0 0.00 0.00 0.00 1012.8
20260505033906 0 0.0 0.0 0.00 0.00 0.00 1013.0
20260505033403 0 0.0 0.0 0.00 0.00 0.00 1012.9
20260505032901 0 0.0 0.0 0.00 0.00 0.00 1012.8
20260505032357 0 0.0 0.0 0.00 0.00 0.00 1013.1
20260505031854 0 0.0 0.0 0.00 0.00 0.00 1012.9
20260505031351 0 0.0 0.0 0.00 0.00 0.00 1013.0
20260505030848 0 0.0 0.0 0.00 0.00 0.00 1013.1
20260505030344 0 0.0 0.0 0.00 0.00 0.00 1012.8
20260505025839 0 0.0 0.0 0.00 0.00 0.00 1012.8
20260505025337 0 0.0 0.0 0.00 0.00 0.00 1012.8
20260505024836 0 0.0 0.0 0.00 0.00 0.00 1012.6
20260505024333 0 0.0 0.0 0.00 0.00 0.00 1013.1
20260505023830 0 0.0 0.0 0.00 0.00 0.00 1013.0
20260505023327 0 0.0 0.0 0.00 0.00 0.00 1013.0
20260505022824 0 0.0 0.0 0.00 0.00 0.00 1012.9
20260505022321 0 0.0 0.0 0.00 0.00 0.00 1012.8
20260505021818 0 0.0 0.0 0.00 0.00 0.00 1012.8
20260505021315 0 0.0 0.0 0.00 0.00 0.00 1012.9
20260505020811 0 0.0 0.0 0.00 0.00 0.00 1012.9
20260505020307 0 0.0 0.0 0.00 0.00 0.00 1012.8
20260505015804 0 0.0 0.0 0.00 0.00 0.00 1012.8
20260505015301 0 0.0 0.0 0.00 0.00 0.00 1012.8
20260505014758 0 0.0 0.0 0.00 0.00 0.00 1013.1
20260505014255 0 0.0 0.0 0.00 0.00 0.00 1012.8
20260505013751 0 0.0 0.0 0.00 0.00 0.00 1012.8
20260505013249 0 0.0 0.0 0.00 0.00 0.00 1012.8
20260505012747 0 0.0 0.0 0.00 0.00 0.00 1012.6
20260505012244 0 0.0 0.0 0.00 0.00 0.00 1012.7
20260505011739 0 0.0 0.0 0.00 0.00 0.00 1012.6
20260505011237 0 0.0 0.0 0.00 0.00 0.00 1012.6
20260505010732 0 0.0 0.0 0.00 0.00 0.00 1012.4
20260505010229 0 0.0 0.0 0.00 0.00 0.00 1012.5
20260505005725 0 0.0 0.0 0.00 0.00 0.00 1012.6
20260505005222 0 0.0 0.0 0.00 0.00 0.00 1012.2
20260505004720 0 0.0 0.0 0.00 0.00 0.00 1012.4
20260505004216 0 0.0 0.0 0.00 0.00 0.00 1012.3
20260505003713 0 0.0 0.0 0.00 0.00 0.00 1012.3
20260505003211 0 0.0 0.0 0.00 0.00 0.00 1012.3
20260505002707 0 0.0 0.0 0.00 0.00 0.00 1012.4
20260505002205 0 0.0 0.0 0.00 0.00 0.00 1012.4
20260505001702 0 0.0 0.0 0.00 0.00 0.00 1012.6
20260505001159 0 0.0 0.0 0.00 0.00 0.00 1012.1
20260505000656 0 0.0 0.0 0.00 0.00 0.00 1012.3
20260505000154 69 320 0.0 0.0 0.00 0.00 0.00 46 1012.4
20260504235650 69 320 0.0 0.0 0.00 0.00 0.00 46 1012.3
20260504235147 0 0.0 0.0 0.00 0.00 0.00 1012.1
20260504234644 0 0.0 0.0 0.00 0.00 0.00 1011.9
20260504234141 0 0.0 0.0 0.00 0.00 0.00 1012.0
20260504233637 0 0.0 0.0 0.00 0.00 0.00 1011.8
20260504233133 0 0.0 0.0 0.00 0.00 0.00 1012.0
20260504232631 73 104 1.0 1.0 0.00 0.00 0.00 38 1012.2
20260504232128 73 104 1.0 1.0 0.00 0.00 0.00 38 1012.1
20260504231624 73 339 2.0 3.0 0.00 0.00 0.00 39 1012.0
20260504231121 73 354 0.0 1.0 0.00 0.00 0.00 38 1012.0
20260504230616 73 77 3.0 3.0 0.00 0.00 0.00 37 1011.8
20260504230116 74 63 2.0 3.0 0.00 0.00 0.00 36 1012.1
20260504225613 74 325 3.0 4.0 0.00 0.00 0.00 36 1012.0
20260504225110 75 37 0.0 2.0 0.00 0.00 0.00 36 1012.1
20260504224606 76 4 4.0 4.0 0.00 0.00 0.00 34 1012.0
20260504224103 76 133 1.0 6.0 0.00 0.00 0.00 34 1012.3